Seward, AK

12:35 PM AKDT on June 28, 2017 (GMT -0800)
Seward

Weather History for PAWD - April, 2013

Change the Weather History Date:

Thursday, April 18, 2013

  Actual Average Record
Temperature  
Mean Temperature 34 °F -  
Max Temperature 43 °F 44 °F 64 °F (1965)
Min Temperature 26 °F 33 °F 25 °F (2006)
Degree Days  
Heating Degree Days 30    
Moisture  
Dew Point 15 °F    
Average Humidity 45    
Maximum Humidity 60    
Minimum Humidity 32    
Precipitation  
Precipitation 0.00 in - - ()
Sea Level Pressure  
Sea Level Pressure 30.11 in    
Wind  
Wind Speed 12 mph (North)    
Max Wind Speed 15 mph    
Max Gust Speed 22 mph    
Visibility 10 miles    
Events      
Averages and records for this station are not official NWS values.
T = Trace of Precipitation, MM = Missing Value Source: NWS Daily Summary

Daily Weather History Graph

Daily Weather History Graph

Search for Another Location

Airport or City:

Trip Planner

Search our weather history database for the weather conditions in past years. The results will help you decide how hot, cold, wet, or windy it might be!

Date:

Astronomy

Apr. 18, 2013 Rise Set
Actual Time 6:30 AM AKDT 9:25 PM AKDT
Civil Twilight 5:42 AM AKDT 10:13 PM AKDT
Nautical Twilight 4:37 AM AKDT 11:19 PM AKDT
Astronomical Twilight 2:53 AM AKDT 1:11 AM AKDT
Moon 12:37 PM AKDT (4/18) 4:03 AM AKDT (4/18)
Length of Visible Light 16h 30m
Length of Day
14h 54m
First Quarter, 53% of the Moon is Illuminated
Apr 18
First Quarter
Apr 25
Full
May 2
Last Quarter
May 9
New
May 17
First Quarter

Hourly Weather History & Observations

Time (AKDT) Temp. Windchill Dew Point Humidity Pressure Visibility Wind Dir Wind Speed Gust Speed Precip Events Conditions
12:53 AM 33.1 °F 23.9 °F 14.0 °F 46% 30.12 in 10.0 mi North 12.7 mph - N/A   Clear
1:53 AM 32.0 °F 22.1 °F 14.0 °F 48% 30.13 in 10.0 mi NNE 13.8 mph 21.9 mph N/A   Clear
2:53 AM 30.9 °F 21.7 °F 14.0 °F 50% 30.14 in 10.0 mi North 11.5 mph 20.7 mph N/A   Clear
3:53 AM 28.9 °F 17.7 °F 14.0 °F 54% 30.14 in 10.0 mi NNE 15.0 mph - N/A   Clear
4:53 AM 28.9 °F 19.2 °F 14.0 °F 54% 30.14 in 10.0 mi NNE 11.5 mph - N/A   Clear
5:53 AM 28.0 °F 17.0 °F 14.0 °F 56% 30.14 in 10.0 mi North 13.8 mph - N/A   Clear
6:53 AM 27.0 °F 15.6 °F 14.0 °F 58% 30.13 in 10.0 mi NNE 13.8 mph 20.7 mph N/A   Clear
7:53 AM 26.1 °F 14.5 °F 14.0 °F 60% 30.14 in 10.0 mi NNE 13.8 mph - N/A   Clear
8:53 AM 28.9 °F 19.2 °F 15.1 °F 56% 30.13 in 10.0 mi North 11.5 mph 21.9 mph N/A   Clear
9:53 AM 33.1 °F 24.9 °F 16.0 °F 50% 30.12 in 10.0 mi NNE 10.4 mph - N/A   Clear
10:53 AM 36.0 °F 27.1 °F 16.0 °F 44% 30.12 in 10.0 mi North 13.8 mph 19.6 mph N/A   Clear
11:53 AM 37.9 °F 29.6 °F 16.0 °F 41% 30.11 in 10.0 mi NNW 13.8 mph 20.7 mph N/A   Clear
12:53 PM 39.9 °F 33.4 °F 16.0 °F 38% 30.10 in 10.0 mi NNW 10.4 mph 16.1 mph N/A   Clear
1:53 PM 41.0 °F 34.7 °F 16.0 °F 36% 30.09 in 10.0 mi NNW 10.4 mph - N/A   Clear
2:53 PM 42.1 °F 36.6 °F 15.1 °F 34% 30.09 in 10.0 mi WNW 9.2 mph - N/A   Clear
3:53 PM 42.1 °F 35.7 °F 15.1 °F 34% 30.09 in 10.0 mi WNW 11.5 mph 18.4 mph N/A   Clear
4:53 PM 43.0 °F 37.2 °F 16.0 °F 34% 30.08 in 10.0 mi WNW 10.4 mph - N/A   Clear
5:53 PM 42.1 °F 36.6 °F 14.0 °F 32% 30.07 in 10.0 mi NW 9.2 mph - N/A   Clear
6:53 PM 42.1 °F 35.2 °F 14.0 °F 32% 30.07 in 10.0 mi NW 12.7 mph - N/A   Clear
7:53 PM 39.9 °F 32.9 °F 14.0 °F 35% 30.08 in 10.0 mi NW 11.5 mph 17.3 mph N/A   Clear
8:53 PM 39.0 °F 33.4 °F 14.0 °F 36% 30.08 in 10.0 mi NW 8.1 mph - N/A   Clear
9:53 PM 37.0 °F 31.0 °F 15.1 °F 41% 30.10 in 10.0 mi NNE 8.1 mph - N/A   Clear
10:53 PM 34.0 °F 27.2 °F 16.0 °F 48% 30.12 in 10.0 mi NNE 8.1 mph - N/A   Clear
11:53 PM 30.9 °F 23.5 °F 17.1 °F 57% 30.12 in 10.0 mi NNE 8.1 mph - N/A   Clear